Location: *
(46.4000°N, 12.6667°E)
Time: 04:52:32
(UTC+00:00)

X-37B - Pass Details

Date: 14 December 2021
Orbit: 334 x 337 km, 45.0° (Epoch: 11 January)

Event Time Altitude Azimuth Distance (km) Brightness Sun altitude
Rises 16:25:42 0° 267° (W) 2,105 5.8 -10.4°
Reaches altitude 10° 16:27:42 10° 264° (W) 1,268 4.5 -10.7°
Maximum altitude 16:30:32 67° 181° (S) 365 0.5 -11.1°
Enters shadow 16:32:34 17° 100° (E) 952 2.0 -11.5°
